Showing default

COSMOS 2520, 42907

Orbit data source: Space-Track

COSMOS 2520, 42907 is a Commonwealth of Independent States-origin payload satellite in GEO that was launched on Wed, 16 Aug 2017 UTC via a PROTON-M/BRIZ-M launch vehicle from the Tyuratam Missile And Space Complex (TTMTR). Payload-class satellites include a variety of spacecraft equipped with specific instruments for various scientific and technological missions. These include communications satellites like Starlink; space stations such as the ISS; scientific satellites like the Hubble; Earth observation satellites from companies like Planet Labs, Umbra, and HawkEye 360; GPS; miniature CubeSats for education and research; and military/defense satellites.

Not visible in the next 10 days
Identifier
42907, 2017-046A
Orbit
GEO
Country
Flag of CISCIS
Related business
Manufacturer
Resehetnev ISS
Mission
Operational Defense Communications
Bus & Motor
EKSPRESS-2000?, AOCS
Mass
~3,162 kg wet, ~2,000 kg dry
Launch date (UTC)
2017-08-16 (9 years ago)
Launch vehicle
PROTON-M/BRIZ-M
Launch site
Tyuratam Missile And Space Complex (TTMTR)
Object type
Payload
Rocket body
Debris
Shape & HBR
Cyl + 2 Pan, 13.5 m
Radar Cross Section
24.423 m², Medium (>0.1 m² and < 1m²)

Expand to show TLE details & history
Last TLE update: 11 hours ago

TLE from 11 hours ago
0 COSMOS 2520
1 42907U 17046A   26150.15555750  .00000148  00000-0  00000+0 0  9999
2 42907   0.0355  85.9860 0001035  52.6178 210.1156  1.00274175 32212
Epoch: 2026-05-30T03:44Z
TLE epoch observation values (Epoch: 2026-05-30T03:44:00.168Z)
Latitude
-0.00213°
Longitude
45.03204°
Altitude
35,789.168 km
Speed
3.074 km/s
True Right ascension
23h 14m 50s
True Declination
0° 00' 08"
Sunlit
Object was in daylight at epoch
Visualization orbit readout
Latitude
Unknown
Longitude
Unknown
Altitude
Unknown
Speed
Unknown
Apparent Right ascension
Unknown
Apparent Declination
Unknown
Sunlit
N/A
Visualization observer readout
Local Sidereal Time
00:31:05
Azimuth
Unknown
Elevation
Unknown
Doppler factor
Unknown
Orbital elements
Apogee altitude
35,791.359 km
Perigee altitude
35,782.631 km
Semi-major axis
42,165.132 km
Eccentricity
0.0001
Inclination
0.0355°
RAAN
85.986°
Arg. of periapsis
52.6178°
True anomaly
210.10965°
Mean anomaly
210.1156°
Eccentric anomaly
210.11262°
Mean motion
0.25068 °/min
Orbital period
1,436.12 mins
BSTAR
0
Loading maneuver chart data...
Computing Atmospheric mass density...
Loading historical data...
Loading historical data...
Loading historical data...
Loading historical data...
Loading historical data...
Loading historical data...
Loading historical data...
Other satellites on launch #46 in the year 2017 (2017-08-16 UTC)

Documentation

Showing up to 5 results
|